Back to catalog

THORAD DELTA 1 DEB

AliveLEO
NORAD 8170·DEBRIS·🇺🇸 United States

Launched Nov 15, 1974 from Vandenberg Space Force Base

Loading…

Next Passes (next 24 hours)

TLE

FreshSource: Space-Track

Epoch: Sep 14, 2026, 03:39 UTC

1 08170U 74089AL  26257.15250226  .00014745  00000-0  60132-2 0  9994
2 08170 101.6073 321.8662 0059017 165.9340 222.1345 14.26569160502684

Track THORAD DELTA 1 DEB in real time with AllMySat

Download on the App Store